sat.trackr.live / text

‹ back to catalog

YAOGAN-39 03C

NORAD 57990 · 2023-152E

PAYLOAD ACTIVE UNKNOWN

§ Identity

Operator
Country
PRC
Launch date
2023-10-05
Launch site
XICLF
Launch vehicle
Mass (kg)
RCS (m²)

External: N2YO · Heavens-Above · Gunter

§ Orbital elements

Epoch: 2026-09-21T19:55:10.119936Z

Period
94.93 min
Inclination
34.9898°
Eccentricity
0.0018070
Mean motion
15.16959500 rev/d
Perigee alt
502.6 km
Apogee alt
527.5 km
Semi-major
6,893.2 km
B*
1.2604e-4
RAAN
54.1193°
Arg perigee
283.2334°
Mean anomaly
76.6363°
Rev number
16,484

§ Raw data

YAOGAN-39 03C1 57990U 23152E   26264.82997824  .00002522  00000+0  12604-3 0  99982 57990  34.9898  54.1193 0018070 283.2334  76.6363 15.16959500164842

JSON: /api/v1/satellites/57990 · /tle

For live sub-satellite position, see the globe view (requires WebGL).

§ Visibility from observer

Set your observer location to see the next 7 days of passes ≥ 10°. The values pass through the URL so the page stays shareable.

No JS? Fill the form by hand. The geolocation button needs JavaScript.